Theta_e
350 350 348 347 346 344 344 345 345 345 345 345 344 343 341 337 338 344 346 349 351 350 348 346 346 346 346 349 350 350 351 350 349 348 348 347 343 340 342 343 343 343 344 345 345 344 344 344 346 345 344 344 345 346 345 344 345 346 344 344 344 344 344 344 343 344 345 345 345 345 346 347 347 348 349 348 347 346 346 344 343 342 339 340 341
349 350 349 348 346 344 343 344 344 345 346 346 345 343 342 339 337 341 346 349 350 349 346 343 342 341 341 344 347 349 349 348 346 344 346 348 345 341 341 343 343 343 343 343 345 344 344 345 345 344 344 344 344 345 344 344 345 345 345 345 344 345 345 344 344 344 345 344 344 344 346 347 347 349 350 349 346 345 344 343 343 343 342 341 341
348 349 349 347 346 345 343 344 344 345 346 346 345 344 343 342 340 341 344 347 348 348 344 341 340 338 336 339 344 345 345 345 344 342 343 345 344 341 341 343 343 344 343 342 343 343 344 346 346 345 344 344 344 344 344 343 345 345 345 345 344 344 345 345 344 344 344 344 344 345 346 346 348 349 349 348 346 345 344 344 343 344 343 341 341
348 348 348 347 346 345 344 344 345 346 346 346 345 344 343 343 342 341 342 344 346 347 344 340 340 339 337 338 342 344 343 345 344 344 343 342 341 339 338 340 342 343 343 342 342 342 343 345 346 345 344 344 344 344 344 342 343 342 343 344 343 344 344 344 343 343 343 344 344 345 345 346 347 347 347 347 346 345 345 344 343 343 343 341 339
348 347 347 347 347 346 346 345 345 346 346 346 345 344 342 342 343 341 339 341 343 345 343 341 340 340 340 342 345 346 347 346 346 345 345 343 341 339 337 336 338 341 342 343 343 343 344 344 345 346 344 344 345 345 344 344 343 342 343 344 344 343 343 344 344 343 343 344 345 345 345 346 345 345 346 347 345 345 345 344 342 341 342 341 340
348 348 347 347 347 346 346 346 346 346 346 346 345 344 343 341 343 342 337 337 340 341 341 341 340 338 339 342 345 347 347 346 344 343 344 343 341 341 339 334 335 338 340 341 343 343 344 345 345 345 345 345 346 345 344 344 344 342 342 343 344 344 344 345 345 344 344 344 345 345 345 345 344 343 345 345 344 343 344 343 341 340 341 341 341
349 349 347 348 348 347 347 346 347 347 346 346 345 345 343 340 342 344 338 335 337 338 339 339 338 336 336 339 341 341 342 342 341 339 340 341 341 342 339 332 331 336 338 340 342 342 343 345 345 345 345 345 346 346 345 345 345 343 343 344 344 344 344 344 345 343 343 344 345 345 344 343 342 343 344 343 343 342 342 343 342 339 340 342 341
350 349 349 348 348 347 348 347 347 346 345 345 345 345 344 340 341 344 340 335 334 334 336 337 336 334 333 336 339 338 336 336 337 337 337 339 340 341 339 334 330 332 337 340 341 342 342 344 346 345 345 344 345 347 347 348 347 345 346 345 344 344 343 343 343 341 342 344 344 344 343 344 343 343 342 342 343 342 340 341 341 339 340 341 341
350 350 349 349 348 348 347 347 346 347 346 345 345 345 344 342 340 343 342 336 334 333 334 335 334 331 331 333 335 336 335 335 336 336 336 337 339 339 338 337 333 330 333 338 341 343 342 343 344 345 345 344 344 348 350 349 349 346 346 346 345 345 343 344 343 340 342 344 344 344 343 344 344 343 342 343 343 341 340 340 340 339 340 340 341
351 350 350 349 349 348 348 348 347 346 346 345 346 345 344 343 340 341 341 337 335 333 333 333 333 331 329 330 330 332 335 337 337 337 335 336 338 338 337 338 337 333 331 334 338 342 342 342 343 343 345 345 345 349 350 349 349 347 346 346 345 345 344 344 343 341 343 344 343 343 342 342 343 341 341 343 342 342 343 342 340 340 340 340 341
351 351 350 350 349 349 349 348 347 347 346 345 345 345 344 344 342 341 340 338 336 336 334 332 332 331 329 329 329 329 335 338 336 336 335 334 335 335 336 337 338 337 334 332 333 339 342 342 342 342 344 345 345 348 350 348 347 347 346 346 345 344 345 345 343 342 343 342 341 341 341 341 342 340 341 343 343 343 345 344 343 342 340 340 341
351 350 351 350 349 350 349 349 348 346 347 346 345 345 344 344 344 342 341 338 336 337 336 332 331 331 330 329 329 329 332 337 339 338 336 335 333 332 335 338 339 339 338 334 331 335 339 341 341 342 343 344 345 347 348 346 346 346 346 346 345 344 345 346 344 342 341 340 337 339 341 341 341 341 341 342 342 342 344 344 343 342 341 340 341
351 351 351 351 349 350 349 348 348 347 346 346 346 345 345 345 345 343 342 340 337 337 338 335 331 329 330 330 330 329 330 334 337 338 338 336 333 332 334 336 337 338 336 333 331 332 336 339 341 341 341 342 342 344 346 345 346 348 348 348 347 345 345 344 344 342 338 337 336 338 341 343 342 342 342 341 341 340 342 342 341 341 342 341 341
351 351 351 351 350 350 350 350 349 347 347 347 346 346 345 345 345 343 343 342 340 339 338 337 333 329 329 330 330 330 332 334 335 335 336 335 332 331 331 331 333 332 330 328 330 330 331 335 339 340 341 341 341 342 344 344 345 348 349 348 347 347 345 342 341 339 336 337 339 341 342 343 343 343 342 342 341 341 341 342 341 340 341 342 342
351 351 350 351 350 349 350 350 349 348 347 347 346 346 346 345 345 344 343 344 343 341 340 337 334 331 328 329 329 329 332 336 336 333 333 332 332 330 328 328 328 328 326 326 328 330 329 331 335 339 340 341 340 342 344 345 345 346 348 347 346 347 346 343 339 337 337 341 343 344 345 346 348 347 343 341 341 341 342 343 342 341 340 341 342
351 351 351 352 352 350 350 349 350 349 348 348 347 346 346 345 345 345 345 345 345 344 342 339 335 332 329 328 328 327 329 334 336 334 332 330 330 329 327 327 327 326 326 327 327 329 330 330 332 335 338 339 340 341 343 345 343 344 348 347 345 345 345 344 342 339 340 344 345 345 346 348 349 349 345 342 341 342 343 344 344 343 339 336 335
351 352 352 352 352 350 350 349 350 350 348 349 348 347 347 346 346 346 346 346 346 345 344 342 339 336 332 329 328 327 326 329 332 332 331 329 329 328 327 326 327 326 326 326 327 328 329 330 331 332 335 337 339 340 342 344 342 342 344 345 343 343 344 344 344 342 342 343 345 345 347 348 349 349 347 345 344 345 345 345 345 343 338 330 327
350 352 352 353 353 351 350 350 350 350 349 349 348 347 348 347 347 347 346 347 347 346 346 344 343 340 336 331 328 327 326 327 328 328 327 328 328 327 327 326 326 326 326 326 327 328 329 330 331 332 335 335 336 339 341 342 342 341 341 342 341 342 343 343 344 344 342 341 342 344 346 347 348 349 348 346 345 347 347 346 345 342 335 327 325
349 351 351 352 353 353 351 351 350 350 349 349 349 348 348 348 348 347 347 347 347 347 347 346 346 344 341 335 330 328 327 327 327 327 326 326 326 326 326 326 325 325 326 326 327 328 329 329 330 331 334 335 336 337 340 341 341 341 340 339 340 340 341 342 343 343 343 342 342 341 344 346 347 347 347 346 345 345 346 346 344 340 334 331 331
349 350 352 352 352 352 352 351 351 350 350 349 349 349 348 348 349 348 348 348 348 348 348 347 347 346 345 340 335 331 329 328 326 327 328 326 326 326 325 325 325 325 326 326 327 328 329 329 329 329 331 334 335 336 338 339 339 340 340 338 339 339 340 341 342 342 342 343 342 339 340 343 345 345 345 346 345 345 344 343 341 339 337 338 339
350 350 352 353 352 352 352 352 351 351 350 350 349 349 349 349 349 349 349 349 349 349 349 349 349 349 347 345 341 336 333 330 328 327 327 327 326 326 325 325 325 326 326 326 326 328 329 329 329 328 329 331 333 335 338 338 338 338 339 339 338 339 339 339 340 341 341 342 342 341 339 339 340 340 341 343 344 343 340 338 340 340 340 340 342
349 350 351 352 352 352 352 352 352 351 351 351 350 350 350 350 351 350 350 350 350 350 351 351 351 350 349 348 345 341 338 335 332 329 328 327 326 326 326 326 325 326 326 326 326 328 329 330 329 329 329 329 331 334 336 338 339 338 339 339 338 338 338 337 338 339 339 340 341 342 341 340 339 337 337 339 340 339 337 338 340 340 338 340 344
349 349 350 351 352 352 353 353 352 352 352 351 351 352 351 351 351 351 351 351 351 352 351 352 352 352 351 350 349 346 342 339 337 335 331 329 328 327 326 326 326 326 326 327 327 328 329 330 329 329 329 329 330 331 334 337 339 339 338 338 338 337 337 336 335 336 338 339 339 340 340 340 340 339 338 338 338 338 339 340 339 339 338 338 341
350 349 350 351 351 352 353 353 353 352 352 353 352 352 352 353 352 353 353 353 353 353 353 353 353 353 353 352 351 349 347 344 342 339 336 333 331 330 328 327 327 327 327 327 328 329 329 330 331 330 330 331 331 331 332 335 336 338 338 338 338 338 337 336 335 335 336 336 337 338 339 340 339 339 338 338 338 339 340 339 338 338 337 337 339
349 349 350 351 351 352 352 353 354 354 353 353 353 353 353 353 354 354 353 354 354 354 354 354 354 354 354 354 353 352 350 347 346 343 340 337 335 333 332 331 330 329 330 330 330 330 331 331 332 331 330 331 332 332 332 332 334 335 337 337 338 337 337 337 335 335 335 335 335 336 337 337 336 335 335 336 337 338 338 337 337 336 336 335 335
349 350 350 351 352 352 352 352 353 353 353 353 353 354 354 354 354 355 355 355 355 355 355 355 355 355 355 355 355 354 352 351 348 346 343 341 339 337 335 334 333 332 332 333 333 332 333 333 332 331 331 330 331 332 333 332 333 334 335 336 337 337 336 335 335 335 335 335 336 336 336 336 335 334 333 333 335 335 335 334 334 333 334 334 333
350 349 350 351 352 352 352 352 352 352 352 353 354 354 354 355 355 356 356 356 356 356 357 357 357 357 357 356 356 355 354 353 350 348 346 344 342 340 338 338 337 336 335 334 335 335 335 335 333 331 331 332 332 333 333 333 333 334 334 335 335 336 336 335 334 333 334 334 335 336 337 337 337 335 333 332 331 331 331 330 331 331 331 332 334
351 351 351 351 353 353 354 353 352 353 353 353 353 354 354 355 356 356 357 358 358 358 358 358 358 358 358 358 357 357 356 354 352 350 348 346 345 343 341 340 339 338 337 337 337 337 337 336 335 332 332 332 334 334 334 334 334 334 335 335 335 335 335 335 334 332 332 333 333 333 334 335 335 335 333 332 331 330 331 330 330 331 332 333 334
354 354 355 353 353 353 353 354 354 354 353 354 353 354 355 355 356 357 357 357 358 358 359 359 359 359 359 358 358 358 357 356 355 353 351 349 347 346 344 342 341 340 339 338 338 339 339 338 337 335 334 334 335 335 335 334 334 334 334 335 335 335 335 335 335 333 332 332 331 331 331 331 332 332 332 332 331 332 332 332 332 332 332 333 332
351 350 352 354 356 355 353 354 354 354 354 354 354 354 355 355 356 357 358 358 359 359 359 359 360 359 359 359 359 359 358 358 357 355 354 352 349 348 347 345 343 341 340 340 340 341 341 340 339 338 338 337 337 336 335 334 333 333 333 334 334 335 335 335 335 333 332 331 330 329 329 329 329 330 330 331 331 331 331 331 333 334 336 336 335
346 346 347 350 353 356 356 356 354 355 355 354 355 354 354 355 356 356 358 359 359 360 360 360 360 360 360 360 360 360 359 359 358 357 356 355 352 350 349 347 345 343 342 342 342 343 343 341 340 339 339 340 338 336 334 334 333 332 332 333 333 333 333 333 333 333 332 330 330 330 330 329 328 329 329 330 330 330 330 333 338 342 343 344 343
342 344 345 345 346 347 353 357 357 356 356 355 355 356 354 356 356 355 356 358 358 359 360 360 361 361 361 361 361 361 361 360 360 359 358 356 354 353 351 349 347 346 345 344 344 345 345 343 342 341 340 340 339 336 334 334 333 332 332 332 332 333 333 333 333 333 332 331 331 331 330 330 329 329 328 328 329 330 331 334 341 346 347 348 347
340 342 343 345 344 337 342 353 356 355 357 356 356 357 357 356 357 356 356 356 357 359 359 360 361 361 361 362 362 362 362 362 361 360 359 358 356 354 352 350 349 347 347 346 346 346 345 345 343 342 342 342 340 338 336 335 334 334 333 333 333 333 333 333 332 332 332 331 330 331 331 330 330 329 328 327 327 329 330 333 339 345 347 347 346
338 340 341 345 345 336 333 346 352 353 355 357 356 357 358 357 357 358 358 357 357 358 360 361 361 362 362 362 363 363 363 363 362 362 361 359 357 355 353 351 350 349 349 348 348 348 346 346 345 343 343 342 340 338 337 337 336 335 334 335 335 335 334 333 333 332 332 332 331 331 331 331 330 331 330 329 328 328 329 332 339 345 346 344 342
336 338 340 342 344 340 333 336 344 346 348 353 356 357 357 357 358 357 357 358 359 359 360 362 362 363 363 363 364 364 364 364 364 363 362 360 358 356 354 352 351 350 350 350 349 349 348 346 346 344 344 343 340 337 338 338 338 337 336 337 338 338 337 335 334 333 333 332 331 331 331 331 331 331 331 331 330 330 329 332 339 342 342 341 340
335 337 338 339 342 343 340 338 340 340 340 345 352 355 357 356 356 358 358 358 359 359 360 362 364 364 365 364 365 365 365 365 365 364 364 362 360 357 355 354 352 351 351 351 351 350 350 348 347 347 345 344 340 338 338 339 339 339 340 340 342 342 341 339 336 335 334 332 332 332 332 331 331 331 331 331 331 333 332 333 335 337 339 339 337
334 335 337 338 340 342 343 343 344 342 341 344 349 352 355 357 356 358 360 360 360 361 360 361 361 364 365 365 365 365 365 365 365 365 365 363 362 359 357 355 354 352 352 352 352 352 351 350 350 349 347 345 342 339 338 338 340 343 344 344 344 344 344 342 338 336 334 333 332 332 332 332 331 331 331 330 332 335 335 334 333 334 337 337 332
333 333 334 337 339 340 342 344 344 344 344 347 347 347 352 356 356 357 359 360 360 361 360 360 360 362 365 366 365 365 365 365 366 365 365 364 363 361 359 356 354 353 353 353 353 353 353 352 352 351 350 348 345 342 340 340 343 346 347 347 346 346 345 344 341 338 336 335 333 332 332 333 332 330 330 330 332 335 336 335 333 332 334 333 328
332 333 333 334 337 339 340 341 342 342 344 346 345 346 350 352 353 355 358 360 359 359 360 359 359 361 364 365 366 366 366 365 366 365 366 365 364 363 360 358 356 354 353 354 354 354 354 354 354 354 352 352 349 347 344 343 345 348 351 350 349 348 347 344 342 340 339 337 334 332 332 333 332 330 331 331 332 336 338 335 333 333 333 330 327
332 333 334 334 334 336 338 340 341 340 339 342 345 347 350 350 350 352 356 358 359 359 360 360 360 361 362 364 366 366 366 366 366 365 365 365 365 364 362 359 357 356 354 355 354 355 355 355 355 356 355 354 353 351 348 346 346 349 351 353 352 352 349 345 342 340 339 338 335 333 332 332 331 330 332 333 334 338 339 337 338 339 335 329 328
331 333 334 334 334 335 337 339 340 341 341 344 347 348 350 350 348 348 352 356 357 359 359 360 361 361 362 364 365 366 366 365 365 365 365 366 365 364 363 361 358 356 356 355 355 356 356 356 356 357 356 355 355 354 351 348 347 348 351 353 354 354 351 348 345 342 340 339 337 336 334 333 332 333 334 335 336 337 339 341 343 341 337 334 336
331 332 333 334 335 336 338 339 339 340 342 345 348 350 351 352 352 351 351 352 356 358 359 360 360 360 362 363 364 366 366 366 365 366 366 365 365 364 363 362 360 358 356 355 356 356 357 357 357 357 357 357 356 355 354 352 349 348 350 352 354 354 351 350 348 346 343 342 339 337 336 336 336 338 338 339 339 339 341 343 344 342 342 345 346
331 332 333 334 335 337 338 339 339 341 343 345 347 349 352 354 355 355 352 352 354 358 359 359 360 360 360 361 362 365 365 366 366 365 365 365 365 364 363 362 361 359 358 357 357 357 357 357 357 357 357 357 357 356 355 354 352 350 350 351 353 353 351 351 351 348 345 343 340 338 338 338 340 342 344 344 344 343 344 344 344 346 348 350 350
330 331 332 333 335 336 337 338 339 340 342 344 345 347 349 353 355 356 356 355 356 357 359 359 359 359 359 359 359 362 364 365 366 365 365 365 365 364 364 362 362 360 359 358 357 357 357 357 357 357 357 357 357 357 356 354 353 352 351 351 351 351 351 352 353 350 349 347 344 342 341 342 344 346 348 349 349 349 348 347 346 348 349 349 349
329 330 331 332 333 335 336 337 338 339 340 342 344 344 346 349 352 354 356 358 358 358 359 359 359 359 359 359 358 359 362 365 365 365 365 365 365 364 364 363 362 361 360 359 359 358 357 358 358 358 358 358 357 357 357 355 353 353 352 352 350 351 352 354 354 353 351 348 344 343 345 347 349 350 351 352 353 353 352 352 350 349 350 351 351
328 329 330 331 332 333 335 336 337 337 339 341 343 344 344 345 348 351 354 356 358 359 359 359 358 359 358 357 358 358 361 364 366 366 365 365 365 364 365 364 363 362 361 360 359 359 358 358 358 358 358 358 358 357 356 355 354 354 353 352 352 352 352 353 354 353 351 348 347 347 349 351 353 353 354 355 355 355 355 354 352 352 352 354 355
326 328 329 330 331 331 332 334 335 336 338 339 341 343 344 344 345 347 351 354 357 359 360 359 358 358 358 357 357 358 361 364 366 366 366 366 365 365 365 364 363 362 362 361 360 360 359 358 358 357 358 358 358 357 356 355 353 352 350 350 350 350 350 351 352 351 350 350 350 351 352 354 355 356 356 356 357 357 357 356 354 354 355 356 358
324 327 328 328 328 329 330 332 333 335 336 339 340 342 344 345 344 344 348 352 357 360 363 362 360 359 360 361 359 358 362 365 365 366 366 366 365 366 365 365 364 364 363 362 361 361 360 359 358 358 358 358 358 357 356 353 351 347 345 345 346 347 347 349 351 350 351 353 353 354 355 356 356 357 357 357 357 357 358 357 356 356 358 359 359
322 325 326 326 325 326 329 331 333 334 336 338 339 342 344 345 344 344 346 350 354 359 363 365 365 362 362 363 361 360 362 365 365 366 366 366 366 365 365 365 364 364 363 363 363 362 361 360 360 359 357 357 357 355 351 347 346 343 342 342 342 342 342 344 345 349 354 356 357 357 357 357 357 358 358 358 358 358 358 358 358 358 359 360 361
321 323 324 324 324 325 329 331 333 334 336 337 339 341 343 344 345 346 347 349 352 357 362 365 367 367 366 364 363 362 362 364 366 366 366 366 366 366 365 366 365 365 364 364 363 363 362 361 360 360 359 358 356 354 350 350 350 348 345 342 342 341 342 342 344 349 355 358 358 359 358 358 358 358 359 359 359 359 359 359 359 359 359 359 360
321 321 323 324 323 324 327 331 332 333 335 336 338 340 342 344 345 347 348 349 351 354 359 363 366 367 368 366 364 363 364 365 366 366 366 365 365 366 367 367 366 366 365 365 365 364 364 363 362 361 360 359 357 356 355 354 353 351 348 345 345 346 347 348 349 352 355 357 358 359 359 359 359 359 359 359 359 359 360 360 360 360 359 358 358
Wind_Speed
41 41 40 38 37 38 39 39 37 35 32 30 32 33 32 33 34 34 32 30 30 29 27 27 28 25 25 26 23 18 16 15 13 12 11 10 11 12 11 10 10 10 9 8 8 9 9 9 8 8 8 8 8 9 11 13 16 17 15 14 14 11 9 10 10 10 10 8 6 5 4 2 2 2 4 3 2 3 3 2 1 2 4 4 3
40 41 42 39 39 40 41 41 39 38 36 33 33 33 33 33 34 36 35 33 32 30 29 30 29 27 28 27 24 20 18 15 13 11 11 10 10 11 11 10 10 10 9 8 8 9 9 9 8 7 8 8 8 8 10 13 16 17 15 14 15 12 9 9 8 10 11 7 6 8 7 6 5 3 4 4 2 2 3 2 1 1 2 3 4
40 42 44 42 41 42 42 43 41 39 37 36 34 33 34 33 33 36 37 35 33 30 30 31 28 27 26 26 24 21 18 15 10 9 11 10 9 10 10 10 10 10 9 8 9 9 9 9 7 7 7 7 7 8 9 13 15 16 15 14 15 14 11 10 9 10 10 7 7 9 9 8 8 6 6 6 5 4 3 3 3 2 0 1 2
40 42 45 44 43 44 45 45 43 41 39 38 36 35 36 35 33 37 39 36 34 32 31 30 28 26 25 25 24 22 19 15 12 10 11 10 9 9 9 9 10 10 9 9 9 9 9 9 8 7 7 7 7 7 9 11 13 14 15 15 15 15 14 12 11 10 11 10 9 8 7 8 8 8 9 7 6 8 7 5 5 4 2 2 2
40 41 45 45 45 46 46 46 45 44 42 40 39 37 37 37 35 36 39 38 35 33 32 31 29 28 27 26 26 24 21 20 18 16 15 12 11 9 8 9 10 10 10 9 9 9 9 9 8 7 7 7 7 7 9 11 11 14 16 16 14 14 14 12 11 11 12 11 8 6 6 7 7 7 9 8 7 9 9 8 7 5 4 3 3
42 42 44 46 46 46 46 47 47 46 44 42 40 38 37 37 36 36 38 39 37 34 33 33 32 30 30 31 30 28 26 25 23 21 19 16 13 10 8 9 10 10 10 9 9 9 9 9 9 9 8 8 8 8 9 10 11 13 15 14 13 14 14 12 11 11 12 11 9 7 5 6 6 7 8 7 7 7 8 10 9 7 5 5 5
44 42 42 44 46 46 47 48 48 47 46 43 42 39 37 37 38 37 37 39 38 36 35 35 34 32 32 33 32 30 28 26 24 21 19 17 14 11 10 10 10 11 10 10 9 9 9 9 9 9 9 9 8 8 9 9 10 12 14 14 14 14 13 12 11 9 10 11 10 7 4 4 6 8 8 7 7 6 6 10 11 9 7 8 7
45 44 42 43 46 48 48 49 49 48 47 45 44 42 39 38 39 38 37 38 39 37 36 36 35 33 33 34 33 30 27 26 24 21 19 17 16 14 12 11 11 11 11 11 10 10 10 10 10 10 11 10 9 8 8 9 9 11 14 14 14 13 12 12 11 9 12 12 10 9 6 5 7 7 7 7 9 8 7 10 12 10 9 9 9
46 46 45 45 47 49 49 49 49 48 48 47 46 44 41 39 40 40 38 38 39 38 37 37 36 34 34 35 34 31 28 25 25 22 20 19 18 16 14 12 11 11 12 12 11 11 10 11 11 11 11 11 10 10 9 9 9 10 13 14 14 13 12 11 10 11 14 12 10 9 8 8 8 8 9 9 10 9 8 9 11 11 10 9 9
47 48 47 46 47 49 49 49 48 49 49 48 47 45 43 41 41 41 40 39 39 39 38 38 37 36 35 35 34 33 30 28 27 25 22 21 20 18 16 14 13 12 12 13 13 12 11 11 11 12 11 11 11 12 10 9 10 10 11 14 14 14 13 11 10 14 14 12 11 9 9 11 10 9 11 10 9 8 6 7 10 11 10 8 6
47 48 47 45 46 48 48 48 48 49 50 49 48 47 45 44 43 43 42 41 40 39 39 39 39 38 36 36 35 34 32 30 29 27 25 24 22 21 18 17 15 12 12 13 13 13 12 11 11 12 11 11 12 13 12 10 9 9 9 12 14 15 15 12 12 15 14 12 12 9 9 12 11 10 11 9 8 7 4 3 5 7 7 6 4
46 48 47 44 44 46 48 48 49 50 50 51 50 49 48 46 45 45 44 43 42 41 40 40 40 39 38 37 36 35 33 32 31 29 28 26 25 23 20 19 17 15 13 13 13 14 14 13 12 12 12 12 13 14 13 11 9 8 9 10 13 16 16 14 13 14 13 12 11 10 10 11 10 10 9 8 7 5 3 1 1 4 5 5 3
45 47 48 45 45 48 49 49 50 51 52 52 51 51 50 48 47 47 46 44 43 42 41 41 42 42 40 38 37 35 33 33 32 30 29 27 26 25 22 21 20 18 16 14 14 15 15 15 13 13 13 13 14 14 13 13 11 9 9 9 11 14 15 15 14 12 11 11 11 12 12 12 10 8 7 7 5 5 4 1 2 4 4 5 4
45 47 48 47 46 49 51 51 51 52 53 53 52 52 51 50 50 48 47 46 45 45 43 42 43 43 42 41 38 37 35 34 33 32 30 28 27 25 23 22 21 19 17 15 14 14 14 15 15 14 14 13 14 14 13 13 13 12 10 9 11 12 13 14 13 12 12 14 14 14 14 12 9 7 8 8 7 6 5 4 4 5 4 5 6
44 46 48 49 48 50 53 53 53 53 53 53 53 53 52 52 51 50 49 47 47 46 45 44 44 43 44 43 41 39 38 36 35 33 32 30 28 27 25 23 22 19 17 14 13 13 13 15 16 16 15 15 15 15 14 14 14 13 12 11 12 12 13 13 13 13 16 17 16 15 14 11 7 7 8 9 8 7 7 7 7 6 5 6 8
43 45 48 49 49 51 53 54 55 54 53 54 54 54 54 53 53 51 50 49 48 47 46 46 44 44 44 44 44 43 41 39 38 36 34 32 30 29 27 25 23 20 18 17 16 15 14 14 17 17 17 16 16 16 17 16 15 13 13 13 13 13 13 13 13 15 19 19 16 15 13 10 6 6 8 8 7 7 8 8 7 6 7 8 9
44 46 49 50 50 51 53 55 56 55 55 55 55 55 55 54 53 53 51 50 48 47 47 46 45 45 45 45 45 44 44 43 42 40 37 35 33 31 29 27 25 23 21 20 19 18 16 16 16 18 19 18 17 17 17 18 16 15 14 14 14 14 14 14 14 15 19 20 17 16 14 11 9 8 9 9 8 7 7 7 8 8 8 8 9
44 45 47 50 50 50 53 55 56 56 56 56 56 56 55 54 53 53 53 51 50 48 47 47 46 46 45 46 46 45 45 44 44 43 40 38 36 35 33 31 29 26 24 22 21 20 19 18 18 18 20 20 19 18 18 18 18 16 15 14 14 14 15 15 15 14 16 18 18 18 16 14 12 11 11 11 10 10 9 9 9 10 9 9 9
43 44 45 48 50 50 51 53 55 56 56 56 55 55 55 54 53 52 52 51 50 49 48 47 47 46 46 46 47 46 46 44 44 44 43 41 39 37 36 34 32 30 27 25 24 23 22 21 20 19 20 21 20 20 20 19 19 19 18 16 16 16 16 16 16 15 15 15 17 19 18 17 16 15 14 13 14 13 12 11 11 11 9 9 9
46 46 46 48 51 51 51 52 53 55 55 55 54 54 54 54 53 52 51 51 50 49 49 48 48 47 46 46 47 48 47 46 44 44 43 42 40 38 38 36 35 33 31 28 26 25 24 23 23 22 22 22 21 22 22 21 21 21 20 19 18 18 18 18 17 16 16 15 16 18 19 19 19 19 18 17 17 16 16 15 14 12 9 8 8
46 46 46 48 50 53 53 52 52 53 53 53 53 54 54 54 53 53 52 52 52 51 49 48 48 47 47 47 47 48 48 48 47 46 45 43 41 40 39 37 36 35 33 32 29 28 27 26 25 24 24 23 23 22 23 23 23 22 22 21 20 20 20 19 18 18 18 17 17 18 18 19 20 20 20 21 20 19 19 17 15 13 10 9 8
47 46 46 47 47 50 51 51 50 50 51 52 52 53 53 53 53 53 52 52 53 52 51 49 48 47 47 46 46 47 48 49 49 48 47 45 44 42 40 39 38 37 35 34 32 30 29 28 28 27 26 25 25 24 24 24 24 23 23 22 22 22 22 21 20 20 19 19 18 18 18 18 18 19 19 21 21 19 18 16 14 13 12 10 10
48 45 45 46 47 48 48 49 48 48 50 51 51 52 53 53 53 53 53 53 52 51 50 49 48 48 47 46 46 47 48 49 49 50 49 47 46 44 42 41 39 38 37 35 34 32 31 30 30 29 28 27 27 26 26 25 25 24 23 23 23 23 23 22 22 21 20 20 20 20 19 18 17 17 17 18 18 16 15 15 15 15 15 13 12
45 45 44 45 46 46 46 48 48 48 49 51 52 52 52 52 52 53 53 53 52 51 50 50 49 48 47 46 46 46 48 49 50 50 50 49 47 46 44 43 41 39 38 37 35 34 32 32 33 32 30 29 29 29 28 28 27 25 24 23 23 23 23 23 23 21 21 21 21 21 20 19 18 19 18 17 17 17 16 17 17 17 17 16 15
42 44 44 44 45 46 47 49 50 49 49 50 51 51 51 52 52 52 52 52 51 51 50 50 49 48 47 47 45 45 47 49 50 50 51 49 48 48 46 45 43 42 40 38 36 35 34 34 34 33 32 30 30 30 30 30 29 28 26 24 23 23 23 23 23 22 21 21 22 21 20 19 20 20 20 19 18 18 17 18 18 18 18 18 16
42 43 43 44 45 47 49 49 50 50 50 51 51 51 51 51 51 51 51 50 51 50 50 50 49 49 49 48 46 45 45 47 48 49 50 50 49 48 47 46 45 43 42 40 38 36 35 34 34 33 33 32 30 30 30 30 30 29 28 27 25 24 23 23 22 22 22 22 22 21 20 20 20 20 20 19 19 18 18 17 18 17 18 18 18
30 35 38 41 43 46 49 51 51 51 51 51 51 51 51 51 50 50 49 49 49 49 49 49 49 49 49 48 47 46 44 44 46 47 48 49 49 49 48 47 46 44 43 41 40 38 36 35 34 34 33 32 31 31 30 30 31 30 29 28 28 26 24 23 23 22 21 22 22 22 21 21 20 20 20 19 19 19 18 18 17 16 16 17 18
10 10 16 26 34 39 43 47 50 51 52 52 52 51 51 50 49 48 47 47 47 48 48 49 49 49 49 49 47 46 44 43 44 45 47 48 48 48 48 47 46 45 44 42 41 39 37 36 35 35 34 33 32 32 31 30 31 31 31 29 28 28 27 25 24 22 21 21 21 21 21 21 20 21 20 20 19 18 18 17 16 15 15 16 17
28 25 16 7 13 22 28 35 39 42 46 48 49 51 50 49 47 46 45 45 45 46 47 47 49 49 48 47 46 46 45 44 44 45 46 47 48 48 47 47 46 45 44 43 41 39 39 38 37 36 35 35 34 34 32 31 30 31 31 30 28 28 28 27 26 24 22 21 21 20 20 20 20 20 20 20 19 18 18 18 17 16 16 16 16
32 31 29 24 15 8 12 20 27 32 36 40 42 44 45 46 45 43 43 44 44 44 46 46 47 48 47 46 45 45 45 45 45 45 46 47 48 48 47 47 47 46 44 43 42 41 40 39 39 38 38 37 36 35 33 31 30 31 31 31 29 28 28 27 27 26 24 23 22 21 20 20 20 20 20 20 20 20 19 18 17 16 15 15 15
30 30 29 28 24 19 14 9 13 19 26 32 37 39 41 42 43 42 40 39 40 41 43 45 46 46 45 45 45 45 45 45 45 45 46 46 47 48 48 48 47 46 45 43 42 42 41 40 40 39 39 39 38 35 33 32 31 31 31 31 30 29 28 28 27 27 26 24 22 22 21 20 20 20 20 20 20 20 20 18 16 14 13 13 14
29 28 27 25 23 21 19 15 9 8 14 20 27 34 39 40 41 43 42 40 40 41 42 43 44 44 44 44 44 44 44 45 45 45 45 46 46 47 48 48 48 47 45 44 43 42 42 41 40 40 40 40 38 36 33 32 32 31 31 31 30 30 29 28 28 27 27 26 24 23 22 22 21 21 21 21 21 21 21 19 16 15 15 16 16
27 27 25 24 23 19 16 16 14 8 7 13 16 21 30 38 40 42 46 46 45 43 42 42 43 43 44 44 43 43 43 44 44 44 44 45 46 48 48 48 48 47 46 45 44 42 42 41 42 42 41 40 38 36 34 34 33 32 31 31 31 30 29 28 28 27 27 26 25 24 23 22 22 21 21 21 21 22 22 20 18 18 18 19 19
27 26 24 21 20 17 12 12 15 13 7 9 14 14 18 29 38 40 43 46 46 45 43 42 42 43 43 43 43 42 42 42 42 43 43 45 46 47 48 48 48 47 47 46 45 43 42 42 42 42 42 41 39 36 34 34 33 32 32 32 32 32 31 30 28 28 27 26 25 25 24 23 22 21 21 21 21 22 22 21 20 21 21 21 21
26 25 23 20 18 16 9 7 10 11 10 4 8 14 11 17 30 38 40 42 44 45 44 42 42 43 43 43 43 42 41 41 40 41 43 44 46 47 47 48 48 48 48 47 46 44 43 42 42 42 42 41 39 36 35 34 33 32 32 32 33 33 33 32 31 30 29 28 27 26 26 25 24 23 22 21 21 21 22 22 22 23 23 23 22
23 24 23 21 19 16 9 6 9 8 7 10 3 8 10 11 18 29 37 40 42 45 44 42 41 41 42 43 43 42 42 41 40 41 42 44 45 47 47 48 48 48 48 47 46 45 44 42 41 42 43 42 39 37 35 34 32 30 30 32 33 34 35 35 34 32 31 30 29 28 28 27 26 25 23 22 22 22 23 24 24 23 23 24 23
23 22 22 20 19 17 11 7 8 6 7 11 8 1 9 9 12 18 26 35 38 42 43 42 40 40 41 43 44 43 43 42 41 41 43 43 44 45 47 47 48 48 48 48 47 46 45 43 42 42 42 42 40 38 36 35 32 30 29 30 31 33 35 35 35 34 32 31 31 30 29 28 28 26 24 23 22 22 24 25 26 26 26 26 25
25 24 23 21 19 17 15 10 7 6 7 10 7 3 7 13 14 17 17 24 30 34 37 38 39 39 40 42 44 44 44 43 43 43 43 43 43 44 45 46 48 49 48 48 47 46 45 44 43 42 42 42 41 39 37 36 34 32 30 29 29 30 32 34 34 34 34 33 32 31 30 30 30 28 26 25 24 23 24 26 27 28 29 29 26
24 23 23 23 21 18 15 13 10 7 8 10 8 7 7 13 19 20 16 17 23 27 28 31 35 39 40 42 44 46 45 45 45 44 44 43 43 43 44 45 47 48 48 48 47 46 46 46 45 43 42 41 41 40 39 37 36 34 32 30 29 29 30 30 31 32 33 33 32 31 31 31 30 29 28 27 26 24 24 25 25 26 29 28 25
23 23 22 22 22 20 18 16 15 11 9 11 11 11 11 13 17 20 19 19 21 21 20 21 26 33 39 43 45 47 48 46 45 45 44 44 43 43 43 44 46 47 47 47 47 47 47 46 46 45 44 42 41 41 40 39 37 36 35 33 31 31 30 29 29 29 30 30 30 30 30 30 29 29 29 29 28 27 26 26 25 26 27 25 22
23 22 22 22 21 22 21 19 18 16 12 11 13 14 13 13 14 16 19 20 21 21 20 18 18 24 34 42 46 48 49 47 45 45 44 44 44 44 44 44 45 46 47 47 47 47 46 46 46 46 45 44 43 41 40 39 39 38 37 35 34 34 33 31 30 29 29 29 28 27 27 27 27 27 28 29 29 29 29 28 28 29 28 26 25
22 22 22 23 21 21 21 20 20 19 16 13 13 14 13 13 13 14 16 19 21 22 22 21 20 21 26 35 43 48 49 48 46 45 46 46 45 44 44 44 44 45 46 47 47 46 46 46 46 46 47 46 44 43 41 40 39 39 39 38 37 36 35 34 33 32 31 30 28 26 25 24 24 25 26 28 30 31 31 31 31 31 30 29 29
22 23 23 23 22 20 20 21 20 19 17 16 15 14 13 14 14 15 16 19 21 22 23 23 24 24 25 29 36 42 47 48 47 46 47 47 46 45 45 44 44 45 45 46 47 46 46 46 46 47 47 47 45 44 43 41 40 39 40 40 39 39 37 36 36 35 33 31 28 27 25 24 23 24 25 26 28 31 33 34 34 33 33 33 33
21 22 23 23 22 21 20 20 20 19 18 17 17 17 16 16 17 17 18 19 21 23 24 25 26 27 27 28 31 36 42 47 48 47 47 47 47 46 45 45 45 45 45 45 46 47 47 47 47 47 47 47 46 45 44 43 42 41 41 41 41 40 39 38 37 36 35 33 31 29 27 25 25 25 24 25 26 28 30 32 33 34 34 34 33
20 21 22 22 23 22 22 22 21 20 19 18 18 19 20 19 20 20 20 21 22 23 24 25 26 28 29 30 31 33 38 44 48 48 47 47 47 46 46 45 44 44 45 45 46 47 48 48 48 47 47 47 46 45 45 44 43 42 41 41 41 41 40 39 38 37 36 35 32 31 29 27 26 26 25 25 26 26 27 27 28 29 28 27 26
20 20 21 22 22 23 24 24 24 22 21 19 19 19 21 22 23 23 23 23 23 24 25 25 26 27 29 30 31 33 38 43 47 48 47 47 47 46 46 45 45 45 45 46 47 48 48 48 48 48 47 47 46 46 46 45 44 43 42 41 41 42 41 41 41 41 40 38 36 34 32 30 28 27 27 27 27 27 26 26 25 25 24 23 22
18 19 20 21 22 23 25 25 25 25 23 22 21 20 21 24 25 25 25 25 25 25 25 26 26 26 26 28 31 34 39 43 46 47 46 46 46 46 46 46 46 46 46 47 47 47 48 49 50 49 47 46 46 47 47 46 45 44 41 40 39 39 39 39 40 40 39 38 37 35 33 31 30 30 29 29 29 28 27 25 24 23 22 22 21
17 16 18 19 20 23 24 25 25 25 24 23 22 21 22 24 26 27 27 26 25 24 24 25 26 26 25 27 32 35 39 43 46 46 46 45 45 45 46 47 47 46 46 46 47 47 48 49 50 49 48 46 47 48 48 47 45 42 39 37 36 34 34 35 36 35 34 35 35 34 34 34 33 32 31 31 30 29 28 26 24 23 22 22 22
17 16 16 17 19 20 21 22 23 23 23 23 22 21 21 23 25 27 27 27 25 24 24 24 25 26 25 28 33 37 40 43 45 46 45 45 45 44 45 46 46 45 45 45 45 46 47 48 48 49 48 48 50 50 48 45 43 40 38 35 33 31 31 31 31 30 30 32 34 34 35 35 35 34 33 33 31 30 29 28 27 25 25 25 25
17 16 15 15 17 19 19 19 21 22 21 21 20 19 19 20 22 25 26 26 26 25 24 23 23 24 25 28 34 38 41 43 45 46 45 44 43 44 44 45 45 44 44 44 44 44 44 45 47 48 49 50 51 50 47 45 44 42 39 36 33 30 29 28 27 27 29 33 35 35 36 36 35 34 34 33 32 31 30 29 29 28 28 28 28
17 16 15 14 16 17 17 18 20 22 20 20 19 18 18 18 19 21 22 24 24 25 25 24 22 20 22 27 33 37 41 43 45 45 45 44 43 44 44 44 44 43 42 43 42 41 41 42 45 46 47 48 49 49 47 46 45 42 39 37 35 33 32 30 27 28 31 35 36 36 37 36 35 34 33 31 30 29 29 29 28 28 28 29 30
Wind_Direction
190 189 190 190 190 191 192 193 193 194 194 194 195 197 196 191 188 187 186 186 190 193 190 186 185 181 180 183 185 185 191 196 188 181 181 181 188 187 184 186 183 183 179 163 155 153 156 160 154 144 136 134 136 139 148 157 162 163 160 156 152 148 148 156 157 152 151 148 152 164 174 213 226 201 209 210 181 185 192 179 131 100 95 91 101
190 190 191 191 190 190 191 192 192 192 192 194 196 198 197 193 189 188 188 189 192 195 191 187 187 184 183 185 184 182 184 188 186 181 181 182 189 187 182 185 185 186 183 168 159 159 162 163 158 147 138 137 143 148 154 160 165 166 165 161 156 152 146 150 156 157 160 160 161 170 179 204 224 207 204 220 206 165 158 171 182 131 104 79 84
188 190 192 193 191 190 191 191 192 194 193 194 197 199 198 195 192 190 191 192 194 196 193 191 190 187 187 187 183 182 181 180 182 177 176 179 181 181 181 185 187 188 185 172 162 163 167 167 161 155 146 141 147 154 158 163 168 171 174 171 164 164 161 157 166 173 178 179 164 168 176 190 216 222 210 213 219 219 216 221 241 249 241 36 58
185 188 189 191 190 190 190 190 192 193 193 194 196 198 198 197 195 193 194 195 195 196 195 193 191 189 189 186 182 183 183 182 186 187 182 179 177 176 181 187 188 190 188 178 170 169 170 170 168 163 151 145 150 153 155 161 168 173 175 173 170 174 176 172 174 184 193 192 175 172 179 191 213 219 208 208 216 226 235 245 257 260 260 297 337
185 185 188 189 189 190 191 191 191 192 193 195 197 199 200 199 197 196 197 198 197 197 196 194 192 189 185 182 180 181 187 192 196 199 197 193 189 184 184 191 193 194 193 186 180 178 175 173 172 170 159 151 153 151 152 158 167 173 174 173 171 170 173 175 180 190 197 198 191 184 186 202 217 213 210 220 226 226 232 243 259 266 265 287 311
188 187 187 188 189 190 191 191 192 193 194 197 198 200 201 200 199 199 200 200 200 199 197 194 194 190 184 182 182 183 189 196 198 198 197 196 194 193 192 195 197 198 196 192 190 185 181 179 175 173 167 160 159 155 153 158 165 172 175 177 175 170 172 179 184 188 193 200 208 211 212 217 210 196 204 223 236 239 236 237 250 263 265 275 288
190 190 189 189 190 190 191 192 193 195 196 198 198 200 202 202 200 200 202 202 201 200 198 197 197 194 187 184 186 187 189 195 198 196 194 195 196 199 199 197 199 200 196 194 194 190 186 185 178 174 171 168 170 166 156 159 166 170 173 177 180 181 183 187 188 188 189 195 201 198 198 206 194 191 198 211 227 243 244 236 242 252 255 263 276
189 191 191 191 192 192 193 194 196 197 197 197 197 199 203 203 202 202 204 204 203 202 201 199 200 197 190 188 189 190 190 194 198 198 196 196 197 201 201 199 201 200 198 197 194 195 194 188 182 178 176 173 175 173 163 163 172 179 181 183 185 186 186 188 195 199 191 191 192 182 172 184 197 202 201 209 221 231 242 237 237 246 253 262 273
190 191 192 194 194 195 195 196 198 198 197 198 199 200 203 204 204 204 205 206 205 204 203 202 202 200 194 191 191 192 193 196 199 200 200 200 200 202 202 201 200 197 199 201 196 196 198 193 187 184 181 178 174 171 167 165 172 185 192 194 192 189 191 192 194 194 189 191 193 189 186 188 200 207 198 204 215 221 238 241 241 251 254 252 257
191 192 193 195 196 197 197 197 198 198 198 199 200 201 203 204 204 205 207 208 207 205 205 204 203 203 200 196 194 193 193 195 201 203 203 203 204 206 205 201 199 200 201 204 202 198 198 196 192 189 187 184 177 172 172 170 170 180 192 199 200 196 197 198 192 185 185 192 196 201 208 201 203 205 196 200 212 219 237 244 248 255 246 229 228
192 192 193 195 196 197 197 198 198 198 198 199 200 201 203 204 205 207 208 210 209 207 206 205 204 205 205 202 199 196 193 193 199 204 204 205 206 208 208 203 201 204 204 205 208 205 202 201 196 193 195 191 181 175 176 174 173 178 186 198 204 203 202 201 197 191 191 199 203 208 214 204 199 197 193 197 208 216 222 225 249 253 232 211 210
192 193 193 194 195 196 197 198 198 198 198 198 200 202 204 205 206 207 209 210 211 210 208 207 206 207 207 207 205 202 198 196 198 203 205 205 206 206 205 204 204 207 207 207 208 207 206 206 202 199 199 197 190 184 180 177 179 185 189 196 201 205 206 205 204 200 199 202 199 195 194 186 177 177 185 192 203 218 221 220 262 234 217 210 216
194 193 193 194 195 196 196 198 198 198 198 199 200 202 204 205 206 207 209 211 212 212 212 210 209 209 209 209 209 208 205 202 202 204 206 207 207 204 202 203 203 207 210 207 205 206 206 206 208 207 204 202 201 199 191 183 184 188 191 199 202 203 207 209 208 201 190 183 179 180 180 171 160 168 190 201 211 223 224 245 233 211 222 219 218
195 194 194 195 196 197 197 197 198 198 199 200 200 202 204 205 207 209 211 212 213 214 214 213 211 211 210 210 210 210 209 208 207 208 209 210 209 206 207 206 206 210 213 211 209 210 209 208 209 211 210 208 207 207 203 195 194 195 195 204 207 205 206 207 205 194 180 173 170 174 179 176 176 199 214 209 210 214 220 253 245 224 241 233 225
197 196 194 195 196 197 198 198 198 199 200 200 201 202 204 205 208 210 211 212 213 215 215 215 214 212 212 211 211 211 211 211 213 213 214 214 213 213 216 216 215 218 221 222 223 222 219 213 209 211 213 213 211 209 209 209 206 202 200 205 208 207 206 204 199 191 183 177 174 177 184 185 193 219 225 215 211 215 225 246 250 243 254 248 245
198 197 196 196 196 197 198 198 198 199 200 201 202 203 205 206 208 210 212 213 214 216 216 217 216 214 213 212 212 213 213 213 215 217 218 220 220 219 222 224 224 225 228 231 233 232 231 223 214 213 214 216 215 210 210 215 217 212 206 205 206 206 205 204 200 193 185 181 181 186 188 187 195 223 236 234 229 224 220 231 247 257 264 262 259
198 199 198 197 196 197 197 198 198 199 201 202 203 205 206 208 209 209 212 214 215 217 218 219 219 217 215 214 213 214 214 215 217 220 222 223 224 226 227 229 230 231 232 234 235 236 234 231 223 217 216 218 216 212 211 215 219 220 213 207 207 209 209 207 203 198 194 192 190 191 191 192 202 222 234 238 241 239 232 239 256 265 266 265 265
200 200 200 199 198 197 197 198 199 200 202 204 205 207 208 209 210 210 211 213 215 217 219 220 220 220 219 216 215 215 215 217 219 222 225 225 226 228 230 231 233 234 235 235 236 236 234 234 230 221 218 219 218 214 214 216 219 222 221 214 210 213 214 212 211 206 204 205 201 197 197 197 205 220 230 234 238 242 246 253 261 266 266 266 269
200 201 201 201 200 199 199 199 200 201 203 206 206 206 207 209 211 212 213 215 217 218 219 221 222 222 222 220 218 217 216 218 220 222 225 227 227 228 229 232 234 235 236 236 235 235 233 232 231 226 219 219 220 219 217 218 219 221 224 221 215 216 217 215 218 216 211 214 211 206 205 202 205 217 226 233 239 243 248 255 260 263 266 273 279
200 199 199 201 201 202 202 201 202 203 204 205 205 206 207 208 210 213 215 216 216 218 220 221 223 224 224 224 222 220 219 219 220 222 224 227 228 228 229 231 233 235 236 236 236 235 234 232 231 228 223 219 220 220 220 221 222 222 225 225 220 220 220 217 219 220 218 219 216 212 211 208 209 215 222 230 237 243 249 254 256 257 262 277 286
200 199 198 201 201 202 203 203 203 203 203 204 205 206 208 208 210 213 214 214 215 218 220 222 223 224 225 226 226 224 222 221 222 223 225 227 229 229 230 231 233 235 236 237 237 236 235 234 232 230 226 222 219 219 221 223 224 223 224 226 224 223 224 222 219 220 220 220 220 218 218 216 216 219 222 226 231 239 248 251 252 254 262 276 284
200 200 200 201 200 201 202 203 204 203 203 204 205 206 208 209 210 212 213 214 215 217 219 221 223 224 225 227 227 227 226 225 224 225 226 228 230 231 232 233 234 235 236 237 238 237 236 235 233 232 230 225 221 219 220 222 225 225 224 225 225 225 227 226 223 222 221 222 224 225 226 227 226 226 225 226 230 239 248 253 255 260 268 274 278
198 199 202 203 202 201 202 202 203 204 203 204 205 206 208 210 211 212 213 215 216 218 219 221 223 225 226 226 228 229 229 228 227 226 227 229 231 232 234 234 235 236 237 238 239 239 238 236 234 233 232 229 225 221 220 222 225 227 226 225 226 226 227 228 228 226 223 224 227 229 231 234 236 237 234 233 237 243 251 257 261 267 273 276 277
197 198 200 203 202 201 202 202 202 203 204 205 206 207 208 210 211 213 214 215 216 218 219 221 223 225 226 226 227 229 229 229 229 229 229 229 230 232 234 235 236 237 238 239 240 240 239 237 234 232 232 232 229 225 223 223 225 228 229 228 227 228 228 229 230 230 227 228 230 231 232 234 238 242 243 242 244 247 251 257 260 265 270 273 276
194 197 199 200 201 201 202 203 203 204 205 205 206 207 208 210 212 213 214 215 216 217 219 220 223 225 226 226 227 229 229 230 230 231 231 231 231 232 233 235 236 237 239 239 240 239 239 237 234 232 232 233 232 229 226 224 225 227 230 230 230 231 231 231 231 231 231 231 233 235 235 236 238 242 243 243 245 248 251 255 258 261 265 269 271
193 195 198 200 201 202 202 203 204 205 206 207 207 208 209 211 213 214 214 214 215 217 218 220 222 224 225 226 227 229 230 231 232 232 232 232 232 232 233 234 236 237 238 239 239 239 238 237 235 233 233 234 234 233 230 228 227 227 229 231 231 232 234 235 234 232 231 232 234 236 236 239 242 243 243 243 244 248 252 255 257 260 263 266 267
194 195 199 201 201 203 204 205 206 206 208 209 208 209 209 210 212 213 214 215 215 216 217 219 221 223 225 227 228 229 231 232 233 234 233 233 232 233 233 234 235 236 237 238 238 238 238 238 236 235 234 235 236 236 235 231 229 229 229 230 231 232 233 235 236 234 232 232 234 236 237 239 243 247 247 247 247 250 254 256 258 260 262 262 263
110 156 193 203 204 206 206 206 207 207 209 210 210 210 210 210 211 212 214 215 215 216 217 218 220 223 225 228 230 231 232 234 235 234 234 234 233 233 233 234 235 235 236 237 238 238 238 238 237 236 236 236 237 238 238 235 232 230 230 230 231 231 232 233 236 236 236 235 235 236 238 240 242 247 248 249 250 252 254 257 258 260 262 262 262
62 64 74 125 195 210 212 210 209 208 209 210 211 211 210 211 211 211 213 214 215 216 217 218 220 223 226 229 231 232 234 235 236 235 235 235 234 233 234 234 234 235 235 236 237 238 239 238 236 235 235 236 237 238 238 237 235 232 230 230 230 230 232 234 236 238 239 240 238 237 239 241 244 245 246 246 248 251 254 257 260 262 264 265 265
49 55 62 69 85 136 197 210 211 211 212 211 211 212 212 212 211 211 212 214 216 216 218 219 221 224 227 229 231 233 235 235 236 236 236 236 234 233 233 233 234 235 235 236 236 237 238 238 237 235 235 235 236 238 238 238 236 234 232 231 231 230 231 233 235 238 241 242 242 241 241 243 244 245 245 245 247 249 251 255 258 261 262 264 267
40 45 52 60 70 81 97 139 188 205 213 215 215 214 213 212 212 211 211 213 216 218 220 221 223 226 228 230 232 234 235 236 237 237 238 237 235 234 233 233 234 234 235 235 235 235 236 237 237 236 235 235 236 237 237 237 237 236 235 235 234 234 233 234 235 236 239 242 244 245 244 244 243 244 245 246 248 249 249 250 252 254 259 263 267
33 36 40 46 52 61 72 83 107 165 198 213 219 220 217 214 212 211 211 213 217 221 223 225 226 228 229 231 234 235 236 237 238 238 238 237 236 234 233 232 233 234 234 234 235 235 236 236 236 236 236 237 237 238 238 238 237 236 236 236 237 238 237 238 237 237 240 243 245 246 247 246 245 245 246 246 247 247 246 244 243 249 257 261 263
27 31 32 34 39 46 58 67 68 81 156 188 206 221 223 220 217 215 213 214 216 220 223 226 227 229 231 233 235 237 238 238 239 239 239 238 236 234 233 232 232 233 234 234 235 235 235 236 236 236 237 237 239 240 240 240 239 238 237 237 238 240 241 241 241 242 243 245 246 248 250 250 250 249 249 248 246 244 244 242 242 246 252 256 260
22 27 29 29 32 34 47 71 65 54 71 167 189 206 225 225 222 221 218 217 218 219 222 224 227 229 231 233 235 237 239 240 240 240 239 237 236 234 233 232 231 232 233 234 235 235 235 235 235 236 237 238 240 241 241 242 242 240 239 239 239 241 242 243 244 245 246 247 248 250 252 254 254 254 254 253 250 247 246 245 246 250 253 257 261
18 20 23 24 26 25 31 56 53 40 30 32 188 195 220 237 229 225 224 222 221 221 222 223 225 228 231 233 235 237 239 241 241 240 239 238 236 235 234 232 231 231 232 233 235 236 235 235 235 235 237 238 240 241 242 243 243 243 242 242 242 243 244 246 247 247 249 250 251 252 254 255 256 257 257 257 256 253 251 249 249 251 253 256 258
17 15 15 14 15 19 21 4 3 3 341 340 344 184 209 256 250 233 226 223 223 223 224 225 226 227 230 233 236 237 239 241 242 241 240 239 237 235 233 232 231 230 232 233 235 236 236 235 235 235 236 238 240 241 242 243 243 243 244 244 244 245 246 247 248 249 249 250 251 253 254 255 256 256 255 256 257 257 255 253 251 251 252 254 256
11 8 11 11 9 12 13 352 347 346 302 310 335 174 198 233 275 263 232 222 224 224 224 227 230 231 232 233 236 238 239 240 241 241 241 240 239 237 234 233 231 230 231 232 233 235 236 236 235 234 235 238 240 241 242 242 243 242 242 244 245 246 247 248 249 249 249 249 250 251 253 254 254 254 253 254 256 256 256 254 251 252 253 254 257
7 360 359 4 6 6 7 0 351 337 306 301 311 298 213 217 255 279 251 225 228 229 229 231 233 234 234 234 237 239 240 240 240 242 243 242 240 238 236 234 232 230 231 232 232 234 235 236 236 235 235 238 241 242 243 243 243 242 241 242 244 245 247 248 248 248 248 248 248 248 251 253 253 253 252 252 253 254 254 253 251 252 253 254 257
8 1 352 352 355 357 357 356 348 326 308 303 294 287 260 233 245 265 259 234 233 237 240 241 240 239 238 237 238 239 240 241 242 243 243 243 241 240 238 236 233 232 231 232 232 233 234 235 236 236 237 238 241 243 244 245 245 244 242 241 242 243 245 247 247 247 248 248 247 247 248 250 252 254 254 255 254 252 252 252 252 253 254 257 261
4 3 354 345 343 345 347 349 348 336 315 303 294 285 276 256 249 253 250 242 241 246 254 257 252 247 244 240 239 238 239 241 243 243 243 243 242 241 238 237 234 232 231 231 232 233 233 234 235 236 237 239 240 242 244 246 246 245 243 242 241 241 243 245 246 247 247 248 247 247 248 250 253 255 257 259 258 255 254 256 255 255 258 264 270
359 359 354 345 339 339 342 345 345 340 328 310 296 287 280 273 263 255 250 248 251 256 262 264 261 255 248 243 240 238 239 240 242 244 243 242 241 240 238 237 235 232 231 230 231 232 233 234 235 236 237 239 240 241 243 245 246 246 244 242 241 242 244 246 248 248 248 248 248 249 250 252 255 259 261 262 262 261 260 259 259 261 266 272 277
354 355 353 348 342 338 339 340 340 337 332 322 305 293 287 282 278 272 264 257 255 259 262 261 257 256 252 246 241 238 237 238 240 240 240 240 239 238 237 237 236 233 231 230 230 231 233 234 235 236 237 238 239 240 242 244 245 245 245 243 241 243 246 248 249 251 251 251 253 254 256 257 259 262 264 265 266 266 265 263 263 266 269 271 273
351 352 351 347 343 340 338 339 339 334 328 322 313 302 291 284 282 278 270 262 258 258 260 259 254 252 252 250 245 241 238 237 237 236 237 237 237 236 235 235 235 233 231 230 230 230 231 233 235 235 236 237 238 240 241 243 244 245 245 244 243 245 247 248 249 252 254 257 260 262 264 264 264 265 265 266 267 267 266 266 267 267 268 269 271
351 352 348 344 341 338 336 335 337 335 327 320 314 306 296 287 284 279 273 269 265 262 261 259 255 251 249 249 249 245 241 238 235 234 234 234 234 235 234 233 233 232 231 230 230 229 230 232 234 234 235 236 237 238 240 243 244 245 245 245 245 246 247 248 250 253 257 260 264 266 268 269 268 268 268 268 267 266 265 265 265 265 265 265 266
349 349 346 342 338 337 333 329 330 331 328 321 315 309 303 295 288 283 280 277 274 270 267 263 259 254 250 248 249 247 243 239 235 232 231 232 232 232 232 231 231 231 230 230 230 229 229 231 232 233 235 236 236 237 238 242 244 245 245 246 246 247 247 248 250 253 257 261 265 267 268 269 268 269 269 269 268 267 267 265 263 260 258 256 256
346 347 347 343 338 335 332 329 329 329 328 326 321 312 304 299 293 289 287 284 282 280 276 271 266 260 253 249 248 246 242 238 234 231 231 232 232 231 231 230 230 230 230 231 231 229 229 230 232 233 234 235 236 237 238 241 243 244 245 245 246 246 246 247 250 254 257 260 262 264 265 265 266 267 267 268 268 269 270 269 264 258 253 250 250
345 347 347 343 340 338 336 334 333 332 329 327 323 315 306 300 296 292 289 286 287 287 283 277 272 266 258 252 248 245 239 234 230 229 229 228 228 230 231 230 230 230 230 230 230 230 229 230 231 232 233 234 236 237 239 241 242 244 245 245 245 244 244 245 247 249 251 254 256 258 259 260 262 264 265 266 267 268 270 270 266 259 254 252 252
343 344 345 345 346 345 342 340 338 335 331 328 322 317 310 303 298 293 290 287 286 287 286 281 273 268 263 256 249 243 236 231 228 227 227 226 225 226 228 231 233 233 231 230 230 230 230 231 232 232 232 233 235 237 239 241 243 244 245 243 242 240 239 238 239 241 244 247 250 253 255 257 258 260 262 263 265 267 270 271 268 262 257 254 253
339 341 345 352 356 353 349 347 343 338 334 331 324 316 311 307 302 297 293 290 287 285 286 283 274 267 263 258 250 241 234 230 228 227 227 227 228 229 231 233 236 238 238 237 235 233 233 233 233 233 233 232 234 237 241 243 245 245 245 243 242 240 238 237 237 239 241 244 247 249 251 253 255 257 259 261 264 266 268 269 268 264 258 254 252
334 336 340 353 3 2 358 356 351 343 337 334 329 319 312 308 304 300 297 294 290 286 286 286 279 270 262 255 248 240 233 229 228 226 224 225 228 231 233 234 236 238 240 240 240 240 240 238 236 235 235 236 237 240 243 244 245 246 248 248 247 246 245 245 245 243 242 243 246 247 249 251 253 255 258 260 262 264 265 265 265 262 258 254 251
330 333 338 350 4 6 4 5 3 355 345 338 333 326 318 311 305 301 298 296 293 288 284 285 284 277 265 252 244 238 233 228 226 225 225 227 228 230 231 232 233 236 238 239 241 243 244 243 241 239 239 239 241 242 244 245 246 248 250 250 251 251 251 251 250 247 245 245 246 247 248 250 251 253 255 258 259 261 262 263 264 264 261 256 252